When you browse on this site, cookies collect data to enhance your experience and personalize the content and advertising you see.
Visit our Privacy Policy to learn more. By continuing to use the site, you agree to this use of cookies and data.
  • In Italy
  • List of Countries
  • For 7 days
  • Water Temperature
  • Satellite Maps
  • Weather Map
  • Weather Widgets
  • user-avatar
    Login

    Hourly Weather Sysoevka

    Today, 24 April, Wednesday

    Time Temperature Precipitation Wind Pressure Humidity
    00:00 +12°C° 0 mm 3 mps 753 mmHg 61%
    01:00 +11°C° 0 mm 3 mps 753 mmHg 62%
    02:00 +10°C° 0 mm 3 mps 753 mmHg 64%
    03:00 +10°C° 0 mm 3 mps 753 mmHg 65%
    04:00 +10°C° 0 mm 3 mps 753 mmHg 67%
    05:00 +9°C° 0 mm 3 mps 754 mmHg 68%
    06:00 +9°C° 0 mm 3 mps 754 mmHg 70%
    07:00 +11°C° 0 mm 3 mps 754 mmHg 65%
    08:00 +13°C° 0 mm 3 mps 754 mmHg 59%
    09:00 +14°C° 0 mm 3 mps 754 mmHg 54%
    10:00 +17°C° 0 mm 3 mps 754 mmHg 50%
    11:00 +18°C° 0 mm 3 mps 754 mmHg 45%
    12:00 +19°C° 0 mm 3 mps 754 mmHg 41%
    13:00 +20°C° 0 mm 3 mps 754 mmHg 39%
    14:00 +21°C° 0 mm 3 mps 753 mmHg 38%
    15:00 +21°C° 0 mm 3 mps 753 mmHg 36%
    16:00 +21°C° 0 mm 3 mps 753 mmHg 38%
    17:00 +21°C° 0 mm 3 mps 753 mmHg 39%
    18:00 +21°C° 0 mm 3 mps 753 mmHg 41%
    19:00 +19°C° 0 mm 2 mps 753 mmHg 44%
    20:00 +18°C° 0 mm 2 mps 753 mmHg 47%
    21:00 +16°C° 0 mm 2 mps 753 mmHg 50%
    22:00 +16°C° 0 mm 2 mps 753 mmHg 51%
    23:00 +15°C° 0 mm 2 mps 753 mmHg 53%

    Tomorrow, 25 April, Thursday

    Time Temperature Precipitation Wind Pressure Humidity
    00:00 +14°C° 0 mm 2 mps 753 mmHg 54%
    01:00 +14°C° 0 mm 2 mps 753 mmHg 56%
    02:00 +13°C° 0 mm 2 mps 753 mmHg 57%
    03:00 +13°C° 0 mm 2 mps 753 mmHg 59%
    04:00 +12°C° 0 mm 2 mps 753 mmHg 61%
    05:00 +12°C° 0 mm 2 mps 753 mmHg 63%
    06:00 +12°C° 0 mm 2 mps 753 mmHg 65%
    07:00 +14°C° 0 mm 2 mps 753 mmHg 59%
    08:00 +16°C° 0 mm 2 mps 753 mmHg 54%
    09:00 +18°C° 0 mm 2 mps 754 mmHg 49%
    10:00 +19°C° 0 mm 2 mps 753 mmHg 45%
    11:00 +20°C° 0 mm 3 mps 753 mmHg 40%
    12:00 +22°C° 0 mm 3 mps 753 mmHg 36%
    13:00 +22°C° 0 mm 3 mps 753 mmHg 35%
    14:00 +23°C° 0 mm 2 mps 753 mmHg 34%
    15:00 +24°C° 0 mm 2 mps 752 mmHg 33%
    16:00 +24°C° 0 mm 2 mps 752 mmHg 35%
    17:00 +24°C° 0 mm 2 mps 752 mmHg 36%
    18:00 +23°C° 0 mm 2 mps 751 mmHg 38%
    19:00 +22°C° 0 mm 1 mps 751 mmHg 42%
    20:00 +20°C° 0 mm 1 mps 751 mmHg 45%
    21:00 +19°C° 0 mm 1 mps 751 mmHg 49%
    22:00 +19°C° 0 mm 1 mps 751 mmHg 50%
    23:00 +19°C° 0 mm 1 mps 751 mmHg 50%

    Day after tomorrow, 26 April, Friday

    Time Temperature Precipitation Wind Pressure Humidity
    00:00 +18°C° 0 mm 1 mps 752 mmHg 51%
    01:00 +18°C° 0.2 mm 1 mps 751 mmHg 54%
    02:00 +16°C° 0.2 mm 1 mps 751 mmHg 56%
    03:00 +16°C° 0.2 mm 1 mps 751 mmHg 59%
    04:00 +15°C° 0.2 mm 1 mps 751 mmHg 61%
    05:00 +15°C° 0.2 mm 1 mps 751 mmHg 64%
    06:00 +14°C° 0.2 mm 1 mps 751 mmHg 66%
    07:00 +15°C° 0.4 mm 1 mps 751 mmHg 61%
    08:00 +18°C° 0.4 mm 1 mps 751 mmHg 57%
    09:00 +19°C° 0.4 mm 1 mps 751 mmHg 52%
    10:00 +19°C° 0.1 mm 2 mps 751 mmHg 49%
    11:00 +20°C° 0.1 mm 2 mps 751 mmHg 46%
    12:00 +21°C° 0.1 mm 3 mps 751 mmHg 43%
    13:00 +21°C° 0 mm 2 mps 751 mmHg 45%
    14:00 +21°C° 0 mm 2 mps 750 mmHg 47%
    15:00 +21°C° 0 mm 2 mps 750 mmHg 49%
    16:00 +20°C° 0.1 mm 2 mps 750 mmHg 50%
    17:00 +20°C° 0.1 mm 2 mps 749 mmHg 51%
    18:00 +20°C° 0.1 mm 2 mps 749 mmHg 53%
    19:00 +20°C° 1.3 mm 1 mps 749 mmHg 59%
    20:00 +18°C° 1.3 mm 1 mps 749 mmHg 65%
    21:00 +16°C° 1.3 mm 1 mps 749 mmHg 72%
    22:00 +15°C° 0.2 mm 1 mps 749 mmHg 74%
    23:00 +15°C° 0.2 mm 1 mps 748 mmHg 77%

    27 April, Saturday

    Time Temperature Precipitation Wind Pressure Humidity
    00:00 +14°C° 0.2 mm 2 mps 748 mmHg 80%
    01:00 +14°C° 0.1 mm 2 mps 748 mmHg 79%
    02:00 +14°C° 0.1 mm 2 mps 748 mmHg 78%
    03:00 +13°C° 0.1 mm 2 mps 748 mmHg 77%
    04:00 +13°C° 0 mm 2 mps 747 mmHg 78%
    05:00 +13°C° 0 mm 2 mps 747 mmHg 78%
    06:00 +12°C° 0 mm 3 mps 747 mmHg 79%
    07:00 +13°C° 0 mm 3 mps 747 mmHg 73%
    08:00 +16°C° 0 mm 3 mps 747 mmHg 67%
    09:00 +17°C° 0 mm 3 mps 746 mmHg 61%
    10:00 +19°C° 0 mm 3 mps 746 mmHg 54%
    11:00 +20°C° 0 mm 4 mps 746 mmHg 47%
    12:00 +21°C° 0 mm 4 mps 746 mmHg 41%
    13:00 +21°C° 0 mm 3 mps 745 mmHg 45%
    14:00 +20°C° 0 mm 3 mps 745 mmHg 48%
    15:00 +20°C° 0 mm 2 mps 745 mmHg 52%
    16:00 +19°C° 0 mm 2 mps 744 mmHg 54%
    17:00 +19°C° 0 mm 2 mps 744 mmHg 56%
    18:00 +19°C° 0 mm 2 mps 744 mmHg 58%
    19:00 +18°C° 0.5 mm 2 mps 744 mmHg 63%
    20:00 +16°C° 0.5 mm 2 mps 744 mmHg 68%
    21:00 +15°C° 0.5 mm 2 mps 744 mmHg 72%
    22:00 +15°C° 0.3 mm 2 mps 744 mmHg 75%
    23:00 +14°C° 0.3 mm 2 mps 743 mmHg 77%

    28 April, Sunday

    Time Temperature Precipitation Wind Pressure Humidity
    00:00 +14°C° 0.3 mm 1 mps 743 mmHg 79%
    01:00 +14°C° 0.2 mm 1 mps 743 mmHg 81%
    02:00 +14°C° 0.2 mm 1 mps 743 mmHg 82%
    03:00 +13°C° 0.2 mm 1 mps 743 mmHg 84%
    04:00 +13°C° 0.6 mm 1 mps 743 mmHg 86%
    05:00 +13°C° 0.6 mm 1 mps 743 mmHg 88%
    06:00 +13°C° 0.6 mm 1 mps 743 mmHg 90%
    07:00 +14°C° 0.2 mm 1 mps 743 mmHg 88%
    08:00 +14°C° 0.2 mm 1 mps 743 mmHg 85%
    09:00 +15°C° 0.2 mm 2 mps 743 mmHg 83%
    10:00 +16°C° 0.5 mm 2 mps 743 mmHg 78%
    11:00 +17°C° 0.5 mm 2 mps 744 mmHg 73%
    12:00 +18°C° 0.5 mm 2 mps 744 mmHg 68%
    13:00 +17°C° 1 mm 3 mps 744 mmHg 71%
    14:00 +15°C° 1 mm 4 mps 744 mmHg 74%
    15:00 +15°C° 1 mm 5 mps 744 mmHg 77%
    16:00 +15°C° 0.1 mm 6 mps 745 mmHg 75%
    17:00 +14°C° 0.1 mm 6 mps 745 mmHg 73%
    18:00 +14°C° 0.1 mm 6 mps 745 mmHg 71%
    19:00 +13°C° 0 mm 6 mps 745 mmHg 71%
    20:00 +12°C° 0 mm 5 mps 746 mmHg 71%
    21:00 +10°C° 0 mm 5 mps 746 mmHg 71%
    22:00 +9°C° 0 mm 5 mps 747 mmHg 69%
    23:00 +8°C° 0 mm 5 mps 747 mmHg 66%

    29 April, Monday

    Time Temperature Precipitation Wind Pressure Humidity
    00:00 +7°C° 0 mm 6 mps 747 mmHg 63%
    01:00 +6°C° 0 mm 5 mps 748 mmHg 65%
    02:00 +5°C° 0 mm 5 mps 748 mmHg 66%
    03:00 +5°C° 0 mm 5 mps 748 mmHg 67%
    04:00 +3°C° 0 mm 5 mps 749 mmHg 66%
    05:00 +3°C° 0 mm 5 mps 749 mmHg 65%
    06:00 +2°C° 0 mm 5 mps 749 mmHg 64%
    07:00 +3°C° 0 mm 6 mps 750 mmHg 59%
    08:00 +4°C° 0 mm 6 mps 750 mmHg 55%
    09:00 +5°C° 0 mm 7 mps 750 mmHg 50%
    10:00 +6°C° 0 mm 7 mps 750 mmHg 47%
    11:00 +8°C° 0 mm 6 mps 751 mmHg 44%
    12:00 +9°C° 0 mm 6 mps 751 mmHg 41%
    13:00 +9°C° 0 mm 6 mps 750 mmHg 41%
    14:00 +10°C° 0 mm 6 mps 750 mmHg 40%
    15:00 +10°C° 0 mm 5 mps 750 mmHg 40%
    16:00 +10°C° 0 mm 5 mps 750 mmHg 41%
    17:00 +10°C° 0 mm 5 mps 750 mmHg 43%
    18:00 +9°C° 0 mm 5 mps 750 mmHg 44%
    19:00 +8°C° 0 mm 4 mps 750 mmHg 48%
    20:00 +7°C° 0 mm 4 mps 751 mmHg 53%
    21:00 +7°C° 0 mm 3 mps 751 mmHg 57%
    22:00 +5°C° 0 mm 3 mps 751 mmHg 58%
    23:00 +4°C° 0 mm 3 mps 751 mmHg 58%
    Show more